CW3467 Sant Marti de Canals ES current weather conditions

sailwx.info

Wind from 054

Air temperature 16.1° C
Dewpoint 11.5° C

Last reported at 2014-Oct-25 20:39 UTC.
Time now 2014-Oct-25 21:10 UTC

Location: N 42°14' E 000°59'.
View on Google Maps.

See reports from other nearby stations

  
Tides and Currents Weather Stations Pressure Air Temp Water Temp Dewpoint Dewpoint Depression Visibility Wind Speed Wind Dir Waves Ship Positions
date/time (UTC)wind fromknots sea level pressurealtimeterstation pressurevisibilityair tempwater tempwave heightnotes
2014-Oct-25 20:39 054 16.1
2014-Oct-25 20:24 104 16.1
2014-Oct-25 20:09 143 16.7
2014-Oct-25 19:54 141 16.7
2014-Oct-25 19:39 118 17.2
2014-Oct-25 19:24 116 1 gusting 2 17.2
2014-Oct-25 19:09 228 17.2
2014-Oct-25 18:54 008 17.8
2014-Oct-25 18:39 006 17.8
2014-Oct-25 18:24 270 18.3
2014-Oct-25 18:09 029 0 gusting 2 18.9
2014-Oct-25 17:54 108 0 gusting 2 18.9
2014-Oct-25 17:39 134 1 gusting 2 19.4
2014-Oct-25 17:24 210 20.0
2014-Oct-25 17:09 037 20.6
2014-Oct-25 16:54 262 22.8
2014-Oct-25 16:39 258 23.9
2014-Oct-25 16:24 249 25.6
2014-Oct-25 16:09 249 26.7
2014-Oct-25 15:54 240 25.6
2014-Oct-25 15:39 270 26.1
2014-Oct-25 15:24 222 25.6
2014-Oct-25 15:09 270 25.6
2014-Oct-25 14:54 222 26.7
2014-Oct-25 14:39 205 0 gusting 2 26.7
2014-Oct-25 14:24 209 26.7
2014-Oct-25 14:09 013 23.9
2014-Oct-25 13:54 274 23.9
2014-Oct-25 13:39 284 24.4
2014-Oct-25 13:24 257 24.4
2014-Oct-25 13:09 266 23.9
2014-Oct-25 12:54 263 22.8
2014-Oct-25 12:39 288 0 gusting 2 23.3
2014-Oct-25 12:24 218 23.3
2014-Oct-25 12:09 258 0 gusting 2 22.8
2014-Oct-25 11:54 213 21.7
2014-Oct-25 11:39 226 21.1
2014-Oct-25 11:24 232 20.6
2014-Oct-25 11:09 219 20.6
2014-Oct-25 10:54 146 0 gusting 3 19.4
2014-Oct-25 10:39 222 0 gusting 2 18.9
2014-Oct-25 10:24 221 18.3
2014-Oct-25 10:09 248 17.8
2014-Oct-25 09:56 149 0 gusting 2 17.2
2014-Oct-25 09:38 143 16.7
2014-Oct-25 09:23 228 0 gusting 2 16.1
2014-Oct-25 09:08 224 0 gusting 2 16.1
2014-Oct-25 08:53 139 15.6
2014-Oct-25 08:38 232 15.6
2014-Oct-25 08:23 203 14.4
2014-Oct-25 08:08 143 14.4
2014-Oct-25 07:53 238 13.9
2014-Oct-25 07:38 100 12.8
2014-Oct-25 07:23 118 11.7
2014-Oct-25 07:08 158 11.1
2014-Oct-25 06:53 134 11.1
2014-Oct-25 06:38 115 11.7
2014-Oct-25 06:23 248 11.7
2014-Oct-25 06:08 087 11.7
2014-Oct-25 05:53 096 11.1
2014-Oct-25 05:38 096 11.7
2014-Oct-25 05:23 098 11.7
2014-Oct-25 05:08 079 11.7
2014-Oct-25 04:53 079 12.2
2014-Oct-25 04:38 075 11.7
2014-Oct-25 04:23 134 12.2
2014-Oct-25 04:08 109 12.8
2014-Oct-25 03:53 108 12.8
2014-Oct-25 03:38 056 12.8
2014-Oct-25 03:23 063 12.8
2014-Oct-25 03:08 029 12.8
2014-Oct-25 02:53 023 13.3
2014-Oct-25 02:38 113 13.3
2014-Oct-25 02:23 131 13.3
2014-Oct-25 02:08 100 13.9
2014-Oct-25 01:53 081 13.3
2014-Oct-25 01:38 101 13.9
2014-Oct-25 01:23 063 13.9
2014-Oct-25 01:08 061 13.9
2014-Oct-25 00:53 116 0 gusting 2 13.9
2014-Oct-25 00:38 128 13.9
2014-Oct-25 00:23 113 13.9
2014-Oct-25 00:07 145 0 14.4
2014-Oct-24 23:37 190 14.4
2014-Oct-24 23:22 113 15.0
2014-Oct-24 23:07 221 15.6
2014-Oct-24 22:52 107 0 gusting 1 15.6
2014-Oct-24 22:37 103 0 gusting 1 15.6
2014-Oct-24 22:22 131 0 gusting 3 16.1
2014-Oct-24 22:07 101 16.1
2014-Oct-24 21:52 263 16.7
2014-Oct-24 21:37 132 16.7
2014-Oct-24 21:22 084 0 gusting 2 16.7
2014-Oct-24 21:07 036 17.8
2014-Oct-24 20:52 097 1 gusting 2 16.7
2014-Oct-24 20:37 094 17.2
2014-Oct-24 20:22 135 2 gusting 4 17.2
2014-Oct-24 20:07 088 1 gusting 3 16.7
2014-Oct-24 19:52 150 0 gusting 2 17.2
2014-Oct-24 19:37 134 17.2
2014-Oct-24 19:22 143 1 gusting 2 18.3
2014-Oct-24 19:07 218 18.9
2014-Oct-24 18:52 026 0 gusting 2 19.4
2014-Oct-24 18:37 030 19.4
2014-Oct-24 18:22 017 20.0
2014-Oct-24 18:07 046 20.6
2014-Oct-24 17:52 026 20.0
2014-Oct-24 17:37 193 20.6
2014-Oct-24 17:22 113 0 gusting 1 20.6
2014-Oct-24 17:07 118 21.7
2014-Oct-24 16:52 108 21.7
2014-Oct-24 16:37 150 22.8
2014-Oct-24 16:22 249 24.4
2014-Oct-24 16:07 259 24.4
2014-Oct-24 15:52 258 25.0
2014-Oct-24 15:37 257 25.6
2014-Oct-24 15:22 267 26.1
2014-Oct-24 15:07 218 26.1
2014-Oct-24 14:52 264 26.1
2014-Oct-24 14:07 127 26.7
2014-Oct-24 13:52 240 26.1
2014-Oct-24 13:37 229 26.1
2014-Oct-24 13:22 198 0 gusting 1 25.6
2014-Oct-24 13:07 198 25.0
2014-Oct-24 12:52 165 23.9
2014-Oct-24 12:37 229 23.9
2014-Oct-24 12:22 229 0 gusting 2 22.8
2014-Oct-24 12:07 246 22.8
2014-Oct-24 11:52 271 0 gusting 2 22.2
2014-Oct-24 11:37 317 21.1
2014-Oct-24 11:22 290 20.6
2014-Oct-24 11:06 345 20.6
2014-Oct-24 10:51 217 19.4
2014-Oct-24 10:36 242 20.0
2014-Oct-24 10:21 260 18.9
2014-Oct-24 10:06 224 18.3
2014-Oct-24 09:51 186 17.2
2014-Oct-24 09:36 215 16.7
2014-Oct-24 09:21 207 16.7
2014-Oct-24 09:06 213 16.7
2014-Oct-24 08:51 222 15.6
2014-Oct-24 08:36 267 14.4
2014-Oct-24 08:21 236 14.4
2014-Oct-24 08:06 131 14.4
2014-Oct-24 07:51 076 13.9
2014-Oct-24 07:36 043 12.2
2014-Oct-24 07:21 113 11.7
2014-Oct-24 07:06 063 10.6
2014-Oct-24 06:51 056 10.0
2014-Oct-24 06:36 231 10.6
2014-Oct-24 06:21 084 10.6
2014-Oct-24 06:06 094 10.6
2014-Oct-24 05:51 093 10.6
2014-Oct-24 05:36 093 11.1
2014-Oct-24 05:21 093 11.1
2014-Oct-24 05:06 089 1 gusting 1 11.1
2014-Oct-24 04:51 043 11.1
2014-Oct-24 04:36 043 0 gusting 1 11.1
2014-Oct-24 04:21 096 11.1
2014-Oct-24 04:06 145 0 gusting 1 11.7
2014-Oct-24 03:51 160 12.2
2014-Oct-24 03:36 093 0 gusting 1 12.2
2014-Oct-24 03:21 336 12.8
2014-Oct-24 03:05 354 0 gusting 3 12.8
2014-Oct-24 02:50 350 0 gusting 3 12.8
2014-Oct-24 02:35 037 13.3
2014-Oct-24 02:20 047 1 gusting 3 13.3
2014-Oct-24 02:05 075 2 gusting 4 13.3
2014-Oct-24 01:50 012 0 gusting 2 13.3
2014-Oct-24 01:35 323 0 gusting 2 13.9
2014-Oct-24 01:20 095 0 gusting 2 13.3
2014-Oct-24 01:05 165 14.4
2014-Oct-24 00:50 148 0 gusting 2 15.0
2014-Oct-24 00:35 352 1 gusting 6 15.6
2014-Oct-24 00:20 050 14.4
2014-Oct-24 00:05 101 0 gusting 2 14.4
2014-Oct-23 23:50 101 2 gusting 4 14.4
2014-Oct-23 23:35 139 2 gusting 3 13.9
2014-Oct-23 23:20 273 14.4
2014-Oct-23 23:05 216 15.0
2014-Oct-23 22:50 215 18.3
2014-Oct-23 22:35 078 17.2
2014-Oct-23 22:20 303 0 gusting 4 18.3
2014-Oct-23 22:05 345 2 gusting 4 17.8
2014-Oct-23 21:50 333 2 gusting 4 17.2
2014-Oct-23 21:35 352 1 gusting 3 17.2
2014-Oct-23 21:20 108 17.8
2014-Oct-23 21:05 225 19.4